Flag for Germany Weather past 2 weeks in Tönisvorst, North Rhine-Westphalia, Germany

Now
29 °F

Passing clouds.


Feels Like: 21 °F
Forecast: 21 / 36 °F
Wind: 8 mph from Northeast

Location: Duesseldorf

Current Time: Dec 28, 2014 at 1:30:22 AM

Latest Report: Dec 28, 2014 at 1:00 AM


Visibility: 25 mi

Pressure: 29.78 "Hg

Humidity: 71%

Dew point: 21 °F

Location of TönisvorstLocation

Historic Weather in Tönisvorst — Graph

°F

Tönisvorst temperature yesterday

Maximum temperature yesterday: 37 °F (at 3:00 AM)
Minimum temperature yesterday: 32 °F (at 11:00 PM)
Average temperature yesterday: 34 °F

Past Weeks' High & Low Weather Summary

 TemperatureHumidityPressure
High55 °F (Dec 18, 7:00 PM)100% (Dec 14, 6:00 AM)30.42 "Hg (Dec 14, 6:00 AM)
Low30 °F (Dec 14, 6:00 AM)65% (Dec 27, 11:00 PM)29.41 "Hg (Dec 27, 2:00 PM)
Average43 °F87%30.01 "Hg
* Reported Midnight between Dec 12 and Dec 13 — Midnight between Dec 27 and Dec 28, Tönisvorst, Weather by CustomWeather, © 2014

Note: Actual official high and low records may vary slightly from our data, if they occured in-between our weather recording intervals... More about our weather records

Advertising

Tönisvorst weather history for previous 24 hours

 ConditionsComfort  
Time TempWeatherWind HumidityBarometerVisibility
12:00 AM
Dec 28
31 °FPassing clouds.9 mph66%29.74 "Hg25 mi
11:00 PM
Dec 27
32 °FPassing clouds.8 mph65%29.70 "Hg25 mi
9:00 PM33 °FOvercast.9 mph66%29.63 "Hg25 mi
8:00 PM33 °FOvercast.7 mph67%29.59 "Hg25 mi
7:00 PM33 °FLight snow. Overcast.9 mph83%29.55 "Hg11 mi
6:00 PM34 °FSnow flurries. Overcast.7 mph87%29.50 "Hg14 mi
5:00 PM34 °FOvercast.6 mph88%29.47 "Hg14 mi
3:00 PM33 °FLight snow. Low clouds.5 mph96%29.44 "Hg3 mi
2:00 PM33 °FSnow. Low clouds.6 mph96%29.41 "Hg1 mi
1:00 PM33 °FSnow. Low clouds.5 mph94%29.44 "Hg2 mi
12:00 PM34 °FLight rain. Low clouds.6 mph92%29.44 "Hg2 mi
11:00 AM33 °FDrizzle. Low clouds.7 mph93%29.44 "Hg2 mi
9:00 AM33 °FLight rain. Low clouds.9 mph94%29.47 "Hg2 mi
8:00 AM34 °FDrizzle. Low clouds.12 mph94%29.50 "Hg2 mi
7:00 AM34 °FDrizzle. Low clouds.12 mph94%29.55 "Hg3 mi
6:00 AM35 °FDrizzle. Low clouds.12 mph95%29.63 "Hg4 mi
5:00 AM35 °FLight rain. Low clouds.8 mph91%29.72 "Hg7 mi
3:00 AM37 °FOvercast.9 mph80%29.88 "Hg16 mi
2:00 AM37 °FOvercast.8 mph81%29.94 "Hg16 mi
1:00 AM36 °FOvercast.7 mph85%30.01 "Hg16 mi
Weather by CustomWeather, © 2014

See weather overviewHow to use our weather pages